Location: Sternwarte ZA, Rosenfeld-Brittheim
(48.2889°N, 8.6789°E)
Time: 05:54:51
(UTC+01:00)

ISS - Pass Details

Date: 13 November 2018
Orbit: 402 x 408 km, 51.6° (Epoch: 17 November)

Event Time Altitude Azimuth Distance (km) Brightness Sun altitude
Exits shadow 05:01:54 26° 134° (SE) 845 -1.8 -24.5°
Drops below altitude 10° 05:03:29 10° 127° (SE) 1,459 -0.3 -24.2°
Sets 05:05:34 0° 124° (ESE) 2,318 0.9 -23.8°
